| time (UTC) | temp F | wind direction | speed MPH | gust MPH | rain 1hr in | rain 24hr in | rain mn in | humidity % | barometer mb |
| 20260906044016 | 0 | 0.0 | 0.0 | 0.00 | 0.00 | 0.00 | |||
| 20260906043523 | 0 | 0.0 | 0.0 | 0.00 | 0.00 | 0.00 | |||
| 20260906042516 | 0 | 0.0 | 0.0 | 0.00 | 0.00 | 0.00 | |||
| 20260906041537 | 0 | 0.0 | 0.0 | 0.00 | 0.00 | 0.00 | |||
| 20260906041002 | 0 | 0.0 | 0.0 | 0.00 | 0.00 | 0.00 | |||
| 20260906040016 | 0 | 0.0 | 0.0 | 0.00 | 0.00 | 0.00 | |||
| 20260906035016 | 0 | 0.0 | 0.0 | 0.00 | 0.00 | 0.00 | |||
| 20260906034502 | 0 | 0.0 | 0.0 | 0.00 | 0.00 | 0.00 | |||
| 20260906033516 | 0 | 0.0 | 0.0 | 0.00 | 0.00 | 0.00 | |||
| 20260906032517 | 0 | 0.0 | 0.0 | 0.00 | 0.00 | 0.00 | |||
| 20260906032002 | 0 | 0.0 | 0.0 | 0.00 | 0.00 | 0.00 | |||
| 20260906031017 | 0 | 0.0 | 0.0 | 0.00 | 0.00 | 0.00 | |||
| 20260906030016 | 0 | 0.0 | 0.0 | 0.00 | 0.00 | 0.00 | |||
| 20260906025502 | 0 | 0.0 | 0.0 | 0.00 | 0.00 | 0.00 | |||
| 20260906024516 | 0 | 0.0 | 0.0 | 0.00 | 0.00 | 0.00 | |||
| 20260906023516 | 0 | 0.0 | 0.0 | 0.00 | 0.00 | 0.00 | |||
| 20260906023001 | 0 | 0.0 | 0.0 | 0.00 | 0.00 | 0.00 | |||
| 20260906022016 | 0 | 0.0 | 0.0 | 0.00 | 0.00 | 0.00 | |||
| 20260906021037 | 0 | 0.0 | 0.0 | 0.00 | 0.00 | 0.00 | |||
| 20260906020523 | 0 | 0.0 | 0.0 | 0.00 | 0.00 | 0.00 | |||
| 20260906015556 | 0 | 0.0 | 0.0 | 0.00 | 0.00 | 0.00 | |||
| 20260906014516 | 69 | 3.0 | 0.0 | 0.00 | 0.00 | 0.00 | 77 | ||
| 20260906014002 | 69 | 0.0 | 0.0 | 0.00 | 0.00 | 0.00 | 77 | 1019.0 | |
| 20260906013519 | 69 | 293 | 2.0 | 4.0 | 0.00 | 0.00 | 0.00 | 77 | 1018.8 |
| 20260906012516 | 70 | 293 | 1.0 | 2.0 | 0.00 | 0.00 | 0.00 | 78 | 1018.8 |
| 20260906011536 | 70 | 0.0 | 0.0 | 0.00 | 0.00 | 0.00 | 76 | 1018.8 | |
| 20260906010516 | 71 | 293 | 1.0 | 2.0 | 0.00 | 0.00 | 0.00 | 76 | 1018.9 |
| 20260906005516 | 71 | 293 | 2.0 | 4.0 | 0.00 | 0.00 | 0.00 | 75 | 1019.1 |
| 20260906004516 | 70 | 293 | 1.0 | 3.0 | 0.00 | 0.00 | 0.00 | 78 | 1019.2 |
| 20260906003516 | 70 | 0.0 | 1.0 | 0.00 | 0.00 | 0.00 | 77 | 1019.3 | |
| 20260906002516 | 70 | 293 | 1.0 | 2.0 | 0.00 | 0.00 | 0.00 | 78 | 1019.4 |
| 20260906001516 | 71 | 0.0 | 1.0 | 0.00 | 0.00 | 0.00 | 76 | 1019.5 | |
| 20260906000537 | 72 | 0.0 | 2.0 | 0.00 | 0.00 | 0.00 | 76 | 1019.4 | |
| 20260905235516 | 71 | 293 | 2.0 | 4.0 | 0.00 | 0.00 | 0.00 | 77 | 1019.4 |
| 20260905234516 | 71 | 0.0 | 2.0 | 0.00 | 0.00 | 0.00 | 76 | 1019.6 | |
| 20260905233516 | 72 | 0.0 | 0.0 | 0.00 | 0.00 | 0.00 | 74 | 1019.5 | |
| 20260905232536 | 73 | 293 | 1.0 | 3.0 | 0.00 | 0.00 | 0.00 | 72 | 1019.6 |
| 20260905231536 | 73 | 293 | 2.0 | 3.0 | 0.00 | 0.00 | 0.00 | 73 | 1019.6 |
| 20260905230536 | 73 | 293 | 2.0 | 3.0 | 0.00 | 0.00 | 0.00 | 72 | 1019.6 |
| 20260905225517 | 75 | 293 | 3.0 | 5.0 | 0.00 | 0.00 | 0.00 | 68 | 1019.5 |
| 20260905224516 | 75 | 293 | 2.0 | 4.0 | 0.00 | 0.00 | 0.00 | 67 | 1019.5 |
| 20260905223517 | 75 | 293 | 3.0 | 6.0 | 0.00 | 0.00 | 0.00 | 68 | 1019.5 |
| 20260905222537 | 74 | 293 | 2.0 | 4.0 | 0.00 | 0.00 | 0.00 | 71 | 1019.6 |
| 20260905221516 | 75 | 0.0 | 1.0 | 0.00 | 0.00 | 0.00 | 69 | 1019.8 | |
| 20260905220536 | 75 | 293 | 1.0 | 3.0 | 0.00 | 0.00 | 0.00 | 68 | 1019.9 |
| 20260905215516 | 75 | 0.0 | 2.0 | 0.00 | 0.00 | 0.00 | 69 | 1019.9 | |
| 20260905214517 | 76 | 293 | 1.0 | 2.0 | 0.00 | 0.00 | 0.00 | 69 | 1019.9 |
| 20260905213517 | 77 | 0.0 | 1.0 | 0.00 | 0.00 | 0.00 | 65 | 1019.9 | |
| 20260905212518 | 78 | 293 | 1.0 | 2.0 | 0.00 | 0.00 | 0.00 | 67 | 1020.0 |
| 20260905211517 | 77 | 293 | 1.0 | 3.0 | 0.00 | 0.00 | 0.00 | 65 | 1019.9 |
| 20260905210517 | 78 | 293 | 1.0 | 3.0 | 0.00 | 0.00 | 0.00 | 66 | 1019.7 |
| 20260905205517 | 79 | 0.0 | 2.0 | 0.00 | 0.00 | 0.00 | 64 | 1019.8 | |
| 20260905204517 | 80 | 0.0 | 1.0 | 0.00 | 0.00 | 0.00 | 60 | 1019.8 | |
| 20260905203517 | 80 | 0.0 | 2.0 | 0.00 | 0.00 | 0.00 | 61 | 1019.9 | |
| 20260905202517 | 79 | 0.0 | 2.0 | 0.00 | 0.00 | 0.00 | 63 | 1019.8 | |
| 20260905201517 | 79 | 0.0 | 1.0 | 0.00 | 0.00 | 0.00 | 65 | 1019.7 | |
| 20260905200517 | 79 | 0.0 | 4.0 | 0.00 | 0.00 | 0.00 | 66 | 1019.7 | |
| 20260905195517 | 77 | 293 | 2.0 | 4.0 | 0.00 | 0.00 | 0.00 | 72 | 1019.7 |
| 20260905194517 | 77 | 0.0 | 3.0 | 0.00 | 0.00 | 0.00 | 74 | 1019.7 | |
| 20260905193517 | 76 | 293 | 3.0 | 8.0 | 0.00 | 0.00 | 0.00 | 75 | |
| 20260905192517 | 74 | 293 | 2.0 | 6.0 | 0.00 | 0.00 | 0.00 | 81 | |
| 20260905191517 | 73 | 293 | 1.0 | 4.0 | 0.00 | 0.00 | 0.00 | 81 | |
| 20260905190517 | 72 | 293 | 1.0 | 3.0 | 0.00 | 0.00 | 0.00 | 81 | |
| 20260905185517 | 72 | 0.0 | 3.0 | 0.00 | 0.00 | 0.00 | 81 | ||
| 20260905184538 | 72 | 293 | 3.0 | 7.0 | 0.00 | 0.00 | 0.00 | 82 | |
| 20260905183516 | 74 | 293 | 1.0 | 2.0 | 0.00 | 0.00 | 0.00 | 82 | |
| 20260905182517 | 74 | 293 | 1.0 | 2.0 | 0.00 | 0.00 | 0.00 | 82 | |
| 20260905181537 | 74 | 0.0 | 1.0 | 0.00 | 0.00 | 0.00 | 82 | ||
| 20260905180517 | 74 | 0.0 | 2.0 | 0.00 | 0.00 | 0.00 | 82 | ||
| 20260905175517 | 74 | 0.0 | 1.0 | 0.00 | 0.00 | 0.00 | 82 | ||
| 20260905174518 | 74 | 293 | 1.0 | 4.0 | 0.00 | 0.00 | 0.00 | 82 | |
| 20260905173558 | 75 | 293 | 1.0 | 4.0 | 0.00 | 0.00 | 0.00 | 80 | |
| 20260905172517 | 76 | 293 | 1.0 | 4.0 | 0.00 | 0.00 | 0.00 | 78 | |
| 20260905171517 | 77 | 293 | 1.0 | 3.0 | 0.00 | 0.00 | 0.00 | 77 | |
| 20260905170517 | 78 | 293 | 1.0 | 5.0 | 0.00 | 0.00 | 0.00 | 76 | |
| 20260905164517 | 79 | 293 | 1.0 | 4.0 | 0.00 | 0.00 | 0.00 | 76 | |
| 20260905163516 | 79 | 293 | 1.0 | 3.0 | 0.00 | 0.00 | 0.00 | 75 | |
| 20260905162517 | 79 | 293 | 1.0 | 2.0 | 0.00 | 0.00 | 0.00 | 75 | |
| 20260905161517 | 79 | 293 | 1.0 | 3.0 | 0.00 | 0.00 | 0.00 | 74 | |
| 20260905160517 | 80 | 293 | 2.0 | 6.0 | 0.00 | 0.00 | 0.00 | 73 | |
| 20260905155537 | 80 | 293 | 1.0 | 4.0 | 0.00 | 0.00 | 0.00 | 72 | |
| 20260905154516 | 81 | 293 | 2.0 | 5.0 | 0.00 | 0.00 | 0.00 | 72 | |
| 20260905153516 | 81 | 293 | 1.0 | 3.0 | 0.00 | 0.00 | 0.00 | 71 | |
| 20260905152517 | 81 | 293 | 1.0 | 5.0 | 0.00 | 0.00 | 0.00 | 71 | |
| 20260905151517 | 81 | 293 | 1.0 | 3.0 | 0.00 | 0.00 | 0.00 | 71 | |
| 20260905150537 | 81 | 293 | 1.0 | 3.0 | 0.00 | 0.00 | 0.00 | 71 | 1019.3 |
| 20260905145517 | 81 | 293 | 2.0 | 4.0 | 0.00 | 0.00 | 0.00 | 71 | 1019.4 |
| 20260905144517 | 81 | 293 | 2.0 | 6.0 | 0.00 | 0.00 | 0.00 | 70 | 1019.5 |
| 20260905143517 | 81 | 293 | 1.0 | 4.0 | 0.00 | 0.00 | 0.00 | 70 | 1019.5 |
| 20260905142517 | 81 | 293 | 2.0 | 4.0 | 0.00 | 0.00 | 0.00 | 70 | 1019.6 |
| 20260905141517 | 81 | 293 | 1.0 | 4.0 | 0.00 | 0.00 | 0.00 | 70 | 1019.8 |
| 20260905140516 | 81 | 293 | 2.0 | 4.0 | 0.00 | 0.00 | 0.00 | 70 | 1019.8 |
| 20260905135517 | 81 | 293 | 1.0 | 3.0 | 0.00 | 0.00 | 0.00 | 70 | 1019.8 |
| 20260905134537 | 81 | 293 | 1.0 | 3.0 | 0.00 | 0.00 | 0.00 | 70 | 1019.9 |
| 20260905133517 | 81 | 293 | 2.0 | 5.0 | 0.00 | 0.00 | 0.00 | 71 | 1020.1 |
| 20260905132517 | 80 | 293 | 2.0 | 5.0 | 0.00 | 0.00 | 0.00 | 72 | 1020.1 |
| 20260905131537 | 79 | 293 | 1.0 | 5.0 | 0.00 | 0.00 | 0.00 | 74 | 1020.2 |
| 20260905130516 | 79 | 293 | 1.0 | 7.0 | 0.00 | 0.00 | 0.00 | 72 | 1020.3 |
| 20260905125517 | 80 | 293 | 2.0 | 6.0 | 0.00 | 0.00 | 0.00 | 72 | 1020.3 |
| 20260905124517 | 80 | 0.0 | 3.0 | 0.00 | 0.00 | 0.00 | 73 | 1020.4 | |
| 20260905123516 | 80 | 293 | 1.0 | 3.0 | 0.00 | 0.00 | 0.00 | 74 | 1020.5 |
| 20260905122516 | 79 | 293 | 1.0 | 3.0 | 0.00 | 0.00 | 0.00 | 75 | 1020.5 |
| 20260905121516 | 79 | 293 | 2.0 | 6.0 | 0.00 | 0.00 | 0.00 | 75 | 1020.6 |
| 20260905120517 | 78 | 293 | 2.0 | 9.0 | 0.00 | 0.00 | 0.00 | 75 | 1020.7 |
| 20260905115517 | 78 | 293 | 3.0 | 11.0 | 0.00 | 0.00 | 0.00 | 75 | 1020.7 |
| 20260905114517 | 78 | 293 | 3.0 | 8.0 | 0.00 | 0.00 | 0.00 | 76 | 1020.8 |
| 20260905113516 | 79 | 293 | 2.0 | 6.0 | 0.00 | 0.00 | 0.00 | 75 | 1020.9 |
| 20260905112517 | 79 | 293 | 2.0 | 6.0 | 0.00 | 0.00 | 0.00 | 73 | 1021.1 |
| 20260905111537 | 79 | 293 | 2.0 | 7.0 | 0.00 | 0.00 | 0.00 | 73 | 1021.2 |
| 20260905110536 | 79 | 293 | 2.0 | 5.0 | 0.00 | 0.00 | 0.00 | 74 | 1021.3 |
| 20260905105516 | 78 | 293 | 2.0 | 4.0 | 0.00 | 0.00 | 0.00 | 75 | 1021.6 |
| 20260905104517 | 78 | 293 | 3.0 | 8.0 | 0.00 | 0.00 | 0.00 | 75 | 1021.7 |
| 20260905103516 | 78 | 293 | 2.0 | 4.0 | 0.00 | 0.00 | 0.00 | 76 | 1021.6 |
| 20260905102517 | 78 | 293 | 1.0 | 5.0 | 0.00 | 0.00 | 0.00 | 76 | 1021.7 |
| 20260905101537 | 77 | 293 | 2.0 | 5.0 | 0.00 | 0.00 | 0.00 | 76 | 1021.8 |
| 20260905100517 | 77 | 293 | 1.0 | 3.0 | 0.00 | 0.00 | 0.00 | 78 | 1021.8 |
| 20260905095516 | 76 | 293 | 2.0 | 6.0 | 0.00 | 0.00 | 0.00 | 79 | 1021.9 |
| 20260905094536 | 76 | 293 | 2.0 | 7.0 | 0.00 | 0.00 | 0.00 | 79 | 1021.9 |
| 20260905093516 | 76 | 293 | 2.0 | 7.0 | 0.00 | 0.00 | 0.00 | 78 | 1021.8 |
| 20260905092517 | 76 | 293 | 1.0 | 3.0 | 0.00 | 0.00 | 0.00 | 80 | 1021.8 |
| 20260905091516 | 75 | 293 | 2.0 | 6.0 | 0.00 | 0.00 | 0.00 | 80 | 1021.7 |
| 20260905090537 | 75 | 293 | 1.0 | 4.0 | 0.00 | 0.00 | 0.00 | 81 | 1021.6 |
| 20260905085516 | 74 | 293 | 2.0 | 4.0 | 0.00 | 0.00 | 0.00 | 82 | 1021.6 |
| 20260905084517 | 74 | 293 | 1.0 | 4.0 | 0.00 | 0.00 | 0.00 | 82 | 1021.5 |
| 20260905083517 | 73 | 293 | 1.0 | 2.0 | 0.00 | 0.00 | 0.00 | 81 | 1021.5 |
| 20260905082517 | 72 | 0.0 | 3.0 | 0.00 | 0.00 | 0.00 | 80 | 1021.4 | |
| 20260905081517 | 71 | 293 | 1.0 | 3.0 | 0.00 | 0.00 | 0.00 | 80 | 1021.4 |
| 20260905080516 | 71 | 293 | 1.0 | 3.0 | 0.00 | 0.00 | 0.00 | 79 | 1021.3 |
| 20260905075516 | 71 | 293 | 1.0 | 3.0 | 0.00 | 0.00 | 0.00 | 77 | 1021.4 |
| 20260905074517 | 71 | 293 | 1.0 | 3.0 | 0.00 | 0.00 | 0.00 | 77 | 1021.5 |
| 20260905073539 | 70 | 0.0 | 0.0 | 0.00 | 0.00 | 0.00 | |||
| 20260905073017 | 0 | 0.0 | 0.0 | 0.00 | 0.00 | 0.00 | |||
| 20260905072017 | 0 | 0.0 | 0.0 | 0.00 | 0.00 | 0.00 | |||
| 20260905071522 | 0 | 0.0 | 0.0 | 0.00 | 0.00 | 0.00 | |||
| 20260905071039 | 0 | 0.0 | 0.0 | 0.00 | 0.00 | 0.00 | |||
| 20260905070516 | 0 | 0.0 | 0.0 | 0.00 | 0.00 | 0.00 | |||
| 20260905065516 | 0 | 0.0 | 0.0 | 0.00 | 0.00 | 0.00 | |||
| 20260905065023 | 0 | 0.0 | 0.0 | 0.00 | 0.00 | 0.00 | |||
| 20260905064539 | 0 | 0.0 | 0.0 | 0.00 | 0.00 | 0.00 | |||
| 20260905064016 | 0 | 0.0 | 0.0 | 0.00 | 0.00 | 0.00 | |||
| 20260905063016 | 0 | 0.0 | 0.0 | 0.00 | 0.00 | 0.00 | |||
| 20260905062523 | 0 | 0.0 | 0.0 | 0.00 | 0.00 | 0.00 | |||
| 20260905062039 | 0 | 0.0 | 0.0 | 0.00 | 0.00 | 0.00 | |||
| 20260905061516 | 0 | 0.0 | 0.0 | 0.00 | 0.00 | 0.00 | |||
| 20260905060537 | 0 | 0.0 | 0.0 | 0.00 | 0.00 | 0.00 | |||
| 20260905060022 | 0 | 0.0 | 0.0 | 0.00 | 0.00 | 0.00 | |||
| 20260905055539 | 0 | 0.0 | 0.0 | 0.00 | 0.00 | 0.00 | |||
| 20260905055017 | 0 | 0.0 | 0.0 | 0.00 | 0.00 | 0.00 | |||
| 20260905054016 | 0 | 0.0 | 0.0 | 0.00 | 0.00 | 0.00 | |||
| 20260905053523 | 0 | 0.0 | 0.0 | 0.00 | 0.00 | 0.00 | |||
| 20260905053059 | 0 | 0.0 | 0.0 | 0.00 | 0.00 | 0.00 | |||
| 20260905052537 | 0 | 0.0 | 0.0 | 0.00 | 0.00 | 0.00 | |||
| 20260905051517 | 0 | 0.0 | 0.0 | 0.00 | 0.00 | 0.00 | |||
| 20260905051022 | 0 | 0.0 | 0.0 | 0.00 | 0.00 | 0.00 | |||
| 20260905050539 | 0 | 0.0 | 0.0 | 0.00 | 0.00 | 0.00 | |||
| 20260905050017 | 0 | 0.0 | 0.0 | 0.00 | 0.00 | 0.00 | |||
| 20260905045016 | 0 | 0.0 | 0.0 | 0.00 | 0.00 | 0.00 |